• In Belarus
  • List of Countries
  • For 7 days
  • Water Temperature
  • Satellite Maps
  • Weather Map
  • Weather Widgets
  • user-avatar
    Login

    Hourly Weather Chudinovo

    Today, 22 May, Wednesday

    Time Temperature Precipitation Wind Pressure Humidity
    00:00 +4°C° 0 mm 1 mps 746 mmHg 60%
    01:00 +4°C° 0 mm 1 mps 746 mmHg 61%
    02:00 +3°C° 0 mm 1 mps 747 mmHg 63%
    03:00 +3°C° 0 mm 1 mps 747 mmHg 64%
    04:00 +2°C° 0 mm 0 mps 747 mmHg 69%
    05:00 +4°C° 0 mm 1 mps 747 mmHg 63%
    06:00 +6°C° 0 mm 1 mps 747 mmHg 57%
    07:00 +8°C° 0 mm 1 mps 747 mmHg 51%
    08:00 +9°C° 0 mm 1 mps 747 mmHg 45%
    09:00 +10°C° 0 mm 2 mps 746 mmHg 40%
    10:00 +12°C° 0 mm 2 mps 746 mmHg 33%
    11:00 +13°C° 0 mm 2 mps 746 mmHg 32%
    12:00 +13°C° 0 mm 2 mps 746 mmHg 31%
    13:00 +14°C° 0 mm 2 mps 745 mmHg 29%
    14:00 +14°C° 0 mm 2 mps 745 mmHg 30%
    15:00 +14°C° 0 mm 2 mps 745 mmHg 30%
    16:00 +15°C° 0 mm 2 mps 745 mmHg 29%
    17:00 +14°C° 0 mm 1 mps 744 mmHg 34%
    18:00 +14°C° 0 mm 1 mps 744 mmHg 38%
    19:00 +12°C° 0 mm 0 mps 744 mmHg 43%
    20:00 +12°C° 0 mm 1 mps 744 mmHg 44%
    21:00 +11°C° 0 mm 1 mps 744 mmHg 46%
    22:00 +10°C° 0 mm 1 mps 744 mmHg 47%
    23:00 +8°C° 0 mm 2 mps 744 mmHg 50%

    Tomorrow, 23 May, Thursday

    Time Temperature Precipitation Wind Pressure Humidity
    00:00 +8°C° 0 mm 2 mps 743 mmHg 54%
    01:00 +7°C° 0 mm 2 mps 743 mmHg 57%
    02:00 +6°C° 0 mm 2 mps 743 mmHg 60%
    03:00 +6°C° 0 mm 2 mps 743 mmHg 62%
    04:00 +5°C° 0 mm 2 mps 742 mmHg 64%
    05:00 +7°C° 0 mm 2 mps 742 mmHg 60%
    06:00 +8°C° 0 mm 3 mps 742 mmHg 55%
    07:00 +10°C° 0 mm 3 mps 741 mmHg 50%
    08:00 +11°C° 0.1 mm 4 mps 741 mmHg 53%
    09:00 +13°C° 0.1 mm 4 mps 740 mmHg 55%
    10:00 +14°C° 0.1 mm 5 mps 739 mmHg 58%
    11:00 +14°C° 0.7 mm 5 mps 739 mmHg 61%
    12:00 +14°C° 0.7 mm 5 mps 738 mmHg 65%
    13:00 +14°C° 0.7 mm 5 mps 737 mmHg 69%
    14:00 +14°C° 0.9 mm 5 mps 737 mmHg 71%
    15:00 +14°C° 0.9 mm 4 mps 737 mmHg 74%
    16:00 +14°C° 0.9 mm 4 mps 736 mmHg 77%
    17:00 +12°C° 1.5 mm 4 mps 736 mmHg 83%
    18:00 +10°C° 1.5 mm 3 mps 736 mmHg 89%
    19:00 +8°C° 1.5 mm 2 mps 735 mmHg 95%
    20:00 +8°C° 0.4 mm 3 mps 735 mmHg 95%
    21:00 +8°C° 0.4 mm 3 mps 736 mmHg 95%
    22:00 +7°C° 0.4 mm 3 mps 736 mmHg 95%
    23:00 +5°C° 0.2 mm 3 mps 736 mmHg 90%

    Day after tomorrow, 24 May, Friday

    Time Temperature Precipitation Wind Pressure Humidity
    00:00 +5°C° 0.2 mm 3 mps 736 mmHg 85%
    01:00 +4°C° 0.2 mm 4 mps 736 mmHg 80%
    02:00 +3°C° 0 mm 4 mps 736 mmHg 82%
    03:00 +2°C° 0 mm 3 mps 737 mmHg 84%
    04:00 0°C° 0 mm 3 mps 738 mmHg 86%
    05:00 +1°C° 0 mm 3 mps 738 mmHg 83%
    06:00 +1°C° 0 mm 4 mps 738 mmHg 80%
    07:00 +3°C° 0 mm 4 mps 739 mmHg 77%
    08:00 +4°C° 0 mm 4 mps 739 mmHg 68%
    09:00 +5°C° 0 mm 4 mps 739 mmHg 58%
    10:00 +6°C° 0 mm 5 mps 740 mmHg 48%
    11:00 +7°C° 0 mm 5 mps 740 mmHg 43%
    12:00 +7°C° 0 mm 5 mps 740 mmHg 39%
    13:00 +8°C° 0 mm 5 mps 741 mmHg 34%
    14:00 +8°C° 0 mm 5 mps 741 mmHg 36%
    15:00 +7°C° 0 mm 5 mps 741 mmHg 37%
    16:00 +7°C° 0 mm 5 mps 742 mmHg 39%
    17:00 +6°C° 0 mm 5 mps 742 mmHg 41%
    18:00 +6°C° 0 mm 4 mps 743 mmHg 43%
    19:00 +5°C° 0 mm 4 mps 743 mmHg 44%
    20:00 +4°C° 0 mm 3 mps 744 mmHg 49%
    21:00 +3°C° 0 mm 3 mps 744 mmHg 55%
    22:00 +2°C° 0 mm 2 mps 745 mmHg 60%
    23:00 +2°C° 0 mm 2 mps 745 mmHg 61%

    25 May, Saturday

    Time Temperature Precipitation Wind Pressure Humidity
    00:00 0°C° 0 mm 3 mps 746 mmHg 62%
    01:00 0°C° 0 mm 3 mps 746 mmHg 64%
    02:00 -1°C° 0 mm 3 mps 747 mmHg 66%
    03:00 -1°C° 0 mm 2 mps 747 mmHg 69%
    04:00 -2°C° 0 mm 2 mps 748 mmHg 71%
    05:00 0°C° 0 mm 3 mps 748 mmHg 64%
    06:00 +1°C° 0 mm 3 mps 748 mmHg 57%
    07:00 +3°C° 0 mm 3 mps 749 mmHg 51%
    08:00 +4°C° 0 mm 3 mps 749 mmHg 46%
    09:00 +5°C° 0 mm 3 mps 749 mmHg 42%
    10:00 +6°C° 0 mm 4 mps 749 mmHg 37%
    11:00 +7°C° 0 mm 4 mps 749 mmHg 36%
    12:00 +8°C° 0 mm 4 mps 749 mmHg 35%
    13:00 +10°C° 0 mm 4 mps 749 mmHg 34%
    14:00 +10°C° 0 mm 3 mps 749 mmHg 34%
    15:00 +10°C° 0 mm 3 mps 749 mmHg 34%
    16:00 +11°C° 0 mm 3 mps 749 mmHg 34%
    17:00 +10°C° 0 mm 3 mps 749 mmHg 38%
    18:00 +10°C° 0 mm 2 mps 749 mmHg 42%
    19:00 +11°C° 0 mm 1 mps 749 mmHg 46%
    20:00 +9°C° 0 mm 1 mps 749 mmHg 50%
    21:00 +7°C° 0 mm 1 mps 750 mmHg 54%
    22:00 +5°C° 0 mm 1 mps 750 mmHg 58%
    23:00 +5°C° 0 mm 1 mps 750 mmHg 61%

    26 May, Sunday

    Time Temperature Precipitation Wind Pressure Humidity
    00:00 +5°C° 0 mm 1 mps 750 mmHg 63%
    01:00 +3°C° 0 mm 2 mps 750 mmHg 66%
    02:00 +3°C° 0 mm 2 mps 751 mmHg 68%
    03:00 +3°C° 0 mm 2 mps 751 mmHg 70%
    04:00 +3°C° 0 mm 2 mps 751 mmHg 72%
    05:00 +4°C° 0 mm 2 mps 751 mmHg 67%
    06:00 +6°C° 0 mm 2 mps 751 mmHg 62%
    07:00 +8°C° 0 mm 2 mps 751 mmHg 57%
    08:00 +10°C° 0 mm 3 mps 751 mmHg 53%
    09:00 +11°C° 0 mm 3 mps 750 mmHg 48%
    10:00 +13°C° 0 mm 3 mps 750 mmHg 44%
    11:00 +14°C° 0 mm 4 mps 750 mmHg 42%
    12:00 +15°C° 0 mm 4 mps 749 mmHg 39%
    13:00 +17°C° 0 mm 4 mps 749 mmHg 37%
    14:00 +17°C° 0 mm 4 mps 748 mmHg 37%
    15:00 +17°C° 0 mm 4 mps 748 mmHg 37%
    16:00 +17°C° 0 mm 5 mps 748 mmHg 38%
    17:00 +17°C° 0 mm 4 mps 747 mmHg 42%
    18:00 +16°C° 0 mm 3 mps 747 mmHg 47%
    19:00 +16°C° 0 mm 3 mps 746 mmHg 52%
    20:00 +13°C° 0 mm 3 mps 746 mmHg 57%
    21:00 +12°C° 0 mm 3 mps 746 mmHg 63%
    22:00 +11°C° 0 mm 3 mps 745 mmHg 68%
    23:00 +11°C° 0 mm 3 mps 745 mmHg 68%

    27 May, Monday

    Time Temperature Precipitation Wind Pressure Humidity
    00:00 +11°C° 0 mm 3 mps 744 mmHg 69%
    01:00 +12°C° 0 mm 3 mps 744 mmHg 69%
    02:00 +11°C° 0.1 mm 3 mps 744 mmHg 76%
    03:00 +11°C° 0.1 mm 3 mps 743 mmHg 83%
    04:00 +11°C° 0.1 mm 3 mps 743 mmHg 90%
    05:00 +12°C° 0.2 mm 4 mps 742 mmHg 90%
    06:00 +13°C° 0.2 mm 4 mps 742 mmHg 91%
    07:00 +14°C° 0.2 mm 4 mps 742 mmHg 91%
    08:00 +14°C° 0.1 mm 4 mps 741 mmHg 90%
    09:00 +15°C° 0.1 mm 4 mps 741 mmHg 88%
    10:00 +17°C° 0.1 mm 4 mps 741 mmHg 87%
    11:00 +17°C° 0.5 mm 4 mps 740 mmHg 87%
    12:00 +17°C° 0.5 mm 4 mps 740 mmHg 86%
    13:00 +18°C° 0.5 mm 4 mps 740 mmHg 86%
    14:00 +18°C° 0.6 mm 4 mps 740 mmHg 85%
    15:00 +18°C° 0.6 mm 4 mps 739 mmHg 84%
    16:00 +17°C° 0.6 mm 5 mps 739 mmHg 83%
    17:00 +18°C° 0.2 mm 4 mps 739 mmHg 83%
    18:00 +18°C° 0.2 mm 3 mps 739 mmHg 84%
    19:00 +18°C° 0.2 mm 3 mps 739 mmHg 85%
    20:00 +17°C° 0.4 mm 3 mps 738 mmHg 88%
    21:00 +16°C° 0.4 mm 3 mps 738 mmHg 92%
    22:00 +14°C° 0.4 mm 3 mps 738 mmHg 96%
    23:00 +14°C° 0 mm 3 mps 738 mmHg 97%
    Show more